[Iaude] MPEC A101: 2024 AJ2 [a=1.50,e=0.79,i=7.6,H=21.4]
    mpec at marsden.cfa.harvard.edu 
    mpec at marsden.cfa.harvard.edu
       
    Tue Jan  9 17:18:04 EST 2024
    
    
  
M.P.E.C. 2024-A101                              Issued 2024 January 9, 22:16 UT
     The Minor Planet Electronic Circulars contain information on unusual
         minor planets, routine data on comets and natural satellites,
         and occasional editorial announcements.  They are published
    on behalf of Division F of the International Astronomical Union by the
          Minor Planet Center, Smithsonian Astrophysical Observatory,
                          Cambridge, MA 02138, U.S.A.
			  
             Prepared using the Tamkin Foundation Computer Network
                              MPC at CFA.HARVARD.EDU
            URL https://www.minorplanetcenter.net/    ISSN 1523-6714
                                    2024 AJ2                                    
Observations:
     K24A02J* C2024 01 07.52440608 27 18.684+05 41 52.12         21.38wXEA101F51
     K24A02J  C2024 01 07.53586008 27 16.780+05 41 40.32         21.56wXEA101F51
     K24A02J  C2024 01 07.54723408 27 14.886+05 41 28.30         21.02wXEA101F51
     K24A02J  C2024 01 07.55862408 27 13.000+05 41 16.47         21.29wXEA101F51
     K24A02J  C2024 01 07.64836308 26 58.170+05 39 42.47         20.81GVEA101F52
     K24A02J  C2024 01 07.64918008 26 58.047+05 39 41.61         21.10GVEA101F52
     K24A02J !C2024 01 09.10915108 22 51.570+05 13 27.33         21.4 GVEA101J04
     K24A02J !C2024 01 09.11854108 22 49.809+05 13 16.53         20.4 GVEA101J04
     K24A02J |C2024 01 09.21520008 22 32.840+05 11 48.60         20.4 GVEA101807
     K24A02J |C2024 01 09.21975008 22 31.990+05 11 43.10         20.6 GVEA101807
     K24A02J |C2024 01 09.22414008 22 31.180+05 11 38.30         20.8 GVEA101807
     K24A02J mC2024 01 09.28909008 22 19.729+05 10 05.05         21.12GVEA101V06
     K24A02J mC2024 01 09.28965608 22 19.657+05 10 04.55         22.30GVEA101V06
     K24A02J mC2024 01 09.29022308 22 19.499+05 10 03.90         21.27GVEA101V06
     K24A02J mC2024 01 09.29078808 22 19.445+05 10 03.14         21.77GVEA101V06
     K24A02J pC2024 01 09.89425908 20 27.75 +04 58 33.5          20.5 GVEA101L01
     K24A02J pC2024 01 09.89869608 20 26.86 +04 58 29.1          21.1 GVEA101L01
     K24A02J pC2024 01 09.89975708 20 26.65 +04 58 28.2          20.7 GVEA101L01
Observer details:
807 Cerro Tololo Observatory, La Serena.  Observers T. Linder, R. Holmes.
    0.61-m f/11 Ritchey-Chretien + CCD.
F51 Pan-STARRS 1, Haleakala.  Observers J. Herman, T. Lowe, P. Minguez, A.
    Schultz, I. Smith.  Measurers K. Chambers, T. de Boer, J. Fairlamb, H.
    Gao, M. Huber, C.-C. Lin, E. Magnier, Y. Ramanjooloo, R. Wainscoat, R.
    Weryk.  1.8-m Ritchey-Chretien + CCD.
F52 Pan-STARRS 2, Haleakala.  Observers J. Herman, T. Lowe, P. Minguez, A.
    Schultz, I. Smith.  Measurers K. Chambers, T. de Boer, J. Fairlamb, H.
    Gao, M. Huber, C.-C. Lin, E. Magnier, Y. Ramanjooloo, R. Wainscoat, R.
    Weryk.  1.8-m Ritchey-Chretien + CCD.
J04 ESA Optical Ground Station, Tenerife.  Observers P. Ruiz, M. Micheli, F.
    Ocana, L. Conversi.  Measurers R. Kresken, M. Micheli, F. Ocana, A.
    Knofel, M. Busch, E. Schwab.  1.0-m f/4.4 reflector + CCD.
L01 Visnjan Observatory, Tican.  Observers K. Korlevic, L. Poropat.  Measurer
    K. Korlevic.  1.0-m f/2.9 reflector + CCD.
V06 Catalina Sky Survey-Kuiper.  Observer K. W. Wierzchos.  Measurers E. C.
    Beshore, D. Fay, J. B. Fazekas, D. C. Fuls, A. R. Gibbs, A. D. Grauer, H.
    Groeller, J. K. Hogan, R. A. Kowalski, S. M. Larson, G. J. Leonard, D.
    Rankin, R. L. Seaman, F. C. Shelly, K. W. Wierzchos.  1.55-m reflector +
    1K CCD.
Orbital elements:
2024 AJ2                                                 Earth MOID = 0.1018 AU
Epoch 2023 Sept. 13.0 TT = JDT 2460200.5                MPC                     
M 256.69825              (2000.0)            P               Q                  
n   0.53588769     Peri.  354.43337     -0.28070328     +0.95087579             
a   1.5011365      Node   259.21399     -0.87538731     -0.30941074             
e   0.7944851      Incl.    7.63654     -0.39357684     +0.01001147             
P   1.84           H   21.44          G   0.15           U   9                  
Residuals in seconds of arc
240107 F51  0.1-  0.1-    240109 J04  0.0   0.0     240109 V06  0.4+  0.1+
240107 F51  0.1-  0.0     240109 J04  0.2-  0.3-    240109 V06  0.4-  0.1+
240107 F51  0.2-  0.1-    240109 807  0.1-  0.4+    240109 V06  0.4+  0.1-
240107 F51  0.1-  0.1-    240109 807  0.1-  0.0     240109 L01  0.3+  0.4-
240107 F52  0.1+  0.1+    240109 807  0.1+  0.0     240109 L01  0.2-  0.3+
240107 F52  0.2+  0.1+    240109 V06  0.1-  0.1-    240109 L01  0.2-  0.6+
Ephemeris:
2024 AJ2                 a,e,i = 1.50, 0.79, 8                   q = 0.3085
Date    TT    R. A. (2000) Decl.     Delta      r    Elong.  Phase     V
2023 12 10    08 54 17.8 +11 18 13   0.9668  1.7257   124.3    28.1    23.8
...
2023 12 25    08 49 17.9 +08 48 59   0.6915  1.5748   139.5    23.9    22.7
...
2024 01 02    08 39 15.2 +07 08 09   0.5568  1.4873   148.6    20.1    22.0
...
2024 01 08    08 26 02.2 +05 33 39   0.4631  1.4182   155.6    16.6    21.4
2024 01 09    08 23 11.2 +05 15 37   0.4482  1.4064   156.7    16.0    21.3
2024 01 10    08 20 07.1 +04 56 46   0.4336  1.3945   157.8    15.5    21.2
...
2024 01 16    07 56 05.4 +02 42 20   0.3508  1.3210   161.5    13.7    20.6
...
2024 01 24    07 02 05.4 -01 43 09   0.2589  1.2175   151.2    22.9    20.0
...
2024 02 08    03 37 35.0 -13 48 09   0.1919  1.0040    89.8    79.2    20.6
A. U. Tomatic                (C) Copyright 2024 MPC           M.P.E.C. 2024-A101
    
    
More information about the Iaude
mailing list